Weather in Ergli

Latvia     56°53′51″N   25°38′18″E
temp.,
°C
wind,
m/s
gust,
m/s
humid.,
%
clouds,
%
prec.,
mm/h
press.,
hPa
HPBL,
m
24 july, sat
sat2400:00+11nw39880 0.0 1014178
03:00+9n26900 0.0 1015107
06:00+10n24880 0.0 101683
09:00+17nnw22570 0.0 1016547
12:00+21nw11410 0.0 10161531
15:00+23wnw22359 0.0 10151982
18:00+23wnw223818 0.0 10162074
21:00+16nw25675 0.0 101693
25 july, sun
sun2500:00+13nnw22705 0.0 101816
03:00+11n00790 0.0 101810
06:00+12wsw11760 0.0 101911
09:00+19w12510 0.0 1019394
12:00+23wsw22395 0.0 10191351
15:00+25sw22345 0.0 10181984
18:00+25sw11365 0.0 10181948
21:00+19nnw11620 0.0 101911
26 july, mon
mon2600:00+16ne22700 0.0 102025
03:00+15e22680 0.0 102016
06:00+15se11720 0.0 102111
09:00+22sse225411 0.0 1021304
12:00+26sse234263 0.0 10211580
15:00+28s243580 0.0 10192658
18:00+24se256087 0.0 1019239
21:00+21se257124 0.0 101996
27 july, tue
tue2700:00+19sse377061 0.0 1020114
03:00+17se278071 0.0 1020122
06:00+17se398015 0.0 1019182
09:00+22se485834 0.0 1018390
12:00+27sse584076 0.0 10171857
15:00+29sse5837100 0.0 10162562
18:00+28sse5845100 0.0 10152130
21:00+23sse41164100 0.3 1014613
28 july, wed
wed2800:00+20sse41078100 0.2 1013350
03:00+17s279514 0.4 1013179
06:00+17ssw259965 0.0 1012139
09:00+22ssw23766 0.1 1011554
12:00+23ssw237934 1.4 1010852
15:00+26s216394 3.1 1009953
18:00+23se1283100 2.2 1008212
21:00+20sw00875 3.1 100711